Regional Weather Roundup
Issued by NWS

Home | Current Version | Previous Version | Graphics & Text | Print | Product List | Glossary On
Versions: 1 2 3 4 5 6 7 8 9 10 11 12 13 14 15 16 17 18 19 20 21 22 23 24 25 26 27 28 29 30 31 32 33 34 35 36 37 38 39 40 41 42 43 44 45 46 47 48 49 50
000
ASUS45 KSLC 262310
RWRUT

UTAH REGIONAL WEATHER ROUNDUP
NATIONAL WEATHER SERVICE SALT LAKE CITY UT
500 PM MDT WED AUG 26 2015

UTZ001>011-023>025-270000-

NORTHERN UTAH

CITY           SKY/WX    TMP DP  RH WIND       PRES   REMARKS
BRIGHAM CITY   PTSUNNY   78  55  44 E8        30.17F
HILL AFB       MOSUNNY   75  57  52 E9        30.19F
LOGAN          LGT RAIN  71  61  70 N6        30.21F
OGDEN          PTSUNNY   77  56  48 VRB6      30.17F
PROVO AIRPORT    N/A     66  59  77 SW7       30.23
SALT LAKE CITY PTSUNNY   77  57  50 S12       30.15F
VERNAL         CLOUDY    72  54  53 CALM      30.27F
WENDOVER       MOSUNNY   84  48  28 SE10      30.13F
HEBER CITY     CLOUDY    63  57  82 CALM      30.27F
WEST JORDAN    MOSUNNY   73  57  56 SE12      30.19F

$$

UTZ012>022-026-027-270000-

SOUTHERN/CENTRAL UTAH

CITY           SKY/WX    TMP DP  RH WIND       PRES   REMARKS
BLANDING       CLOUDY    73  54  52 SE5       30.37S
BRYCE CANYON   MOSUNNY   65  56  72 S6        30.38F
CEDAR CITY     TSTM      70  56  61 W16G37    30.25R
DELTA          SUNNY     81  49  32 NE6       30.16F
HANKSVILLE     CLOUDY    72  61  68 CALM      30.24S
MILFORD        CLOUDY    81  50  33 CALM      30.16F
MOAB/CYNLANDS  CLOUDY    68  62  81 W3        30.23S
PRICE          LGT RAIN  63  58  83 E6        30.29F
ST GEORGE      CLOUDY    88  57  35 S6        30.08F
KANAB          CLOUDY    70  63  78 CALM      30.30F

$$

REGIONAL REPORTS     COLORADO/ARIZONA

CITY           SKY/WX    TMP DP  RH WIND       PRES   REMARKS
CRAIG, CO      CLOUDY    78  44  29 CALM      30.24F
GRAND JUNCTION CLOUDY    74  54  49 N9        30.24F
RIFLE          LGT RAIN  68  57  68 VRB7G17   30.29R
MONTROSE       CLOUDY    74  50  42 E7        30.31F
CORTEZ         PTSUNNY   72  56  57 CALM      30.30F
PAGE, AZ       CLOUDY    74  61  63 VRB5      30.18F
GRAND CANYON   NOT AVBL
KINGMAN        MOSUNNY   88  57  34 VRB5      30.11F
FLAGSTAFF      CLOUDY    69  56  62 S9        30.37F

$$

REGIONAL REPORTS    NEVADA/IDAHO/WYOMING

CITY           SKY/WX    TMP DP  RH WIND       PRES   REMARKS
LAS VEGAS, NV  MOSUNNY   94  57  28 E5        29.96F HX  92
ELY            RAIN      61  56  83 W7        30.33R
ELKO           MOSUNNY   90  27  10 W15       30.11F
POCATELLO, ID  MOSUNNY   76  52  43 SE10G18   30.17F
BURLEY         MOSUNNY   86  50  28 SE8       30.09S
EVANSTON, WY   LGT RAIN  62  53  72 N8        30.36F
ROCK SPRINGS   CLOUDY    74  44  34 W8        30.29F
KEMMERER       LGT RAIN  63  50  63 NW12      30.38S

$$



USA.gov is the U.S. government's official web portal to all federal, state and local government web resources and services.